Flag for India Weather past 2 weeks in Faridabad, Haryana, India

Now
84 °F

Fog.


Feels Like: 94 °F
Forecast: 81 / 99 °F
Wind: 3 mph from Northeast

Location: New Delhi Palam Airport

Current Time: Aug 30, 2014 at 3:47:08 AM

Latest Report: Aug 30, 2014 at 3:00 AM


Visibility: 2 mi

Pressure: 29.68 "Hg

Humidity: 79%

Dew point: 77 °F

Location of FaridabadLocation

Historic Weather in Faridabad — Graph

°F

Faridabad temperature yesterday

Maximum temperature yesterday: 93 °F (at 4:00 PM)
Minimum temperature yesterday: 81 °F (at 12:30 AM)
Average temperature yesterday: 86 °F

Past Weeks' High & Low Weather Summary

 TemperatureHumidityPressure
High104 °F (Aug 22, 3:00 PM)84% (Aug 28, 3:30 PM)29.80 "Hg (Aug 28, 3:30 PM)
Low77 °F (Aug 28, 3:00 PM)28% (Aug 25, 4:00 PM)29.50 "Hg (Aug 15, 2:30 AM)
Average90 °F55%29.66 "Hg
* Reported Aug 15 2:30 AM — Aug 30 2:30 AM, Faridabad, Weather by CustomWeather, © 2014

Note: Actual official high and low records may vary slightly from our data, if they occured in-between our weather recording intervals... More about our weather records

Advertising

Faridabad weather history for previous 24 hours

 ConditionsComfort  
Time TempWeatherWind HumidityBarometerVisibility
2:30 AM
Aug 30
86 °FFog.5 mph75%29.68 "Hg2 mi
12:30 AM86 °FPassing clouds.No wind75%29.68 "Hg2 mi
12:00 AM86 °FPassing clouds.3 mph70%29.68 "Hg2 mi
11:30 PM
Aug 29
86 °FPassing clouds.No wind70%N/A2 mi
11:00 PM86 °FPassing clouds.No wind70%N/A2 mi
10:30 PM86 °FPassing clouds.No wind75%29.68 "Hg2 mi
10:00 PM86 °FPassing clouds.No wind75%29.68 "Hg2 mi
9:30 PM86 °FPassing clouds.No wind75%29.68 "Hg2 mi
9:00 PM88 °FPassing clouds.3 mph66%29.68 "Hg2 mi
8:30 PM88 °FPassing clouds.6 mph66%29.68 "Hg2 mi
8:00 PM88 °FPassing clouds.5 mph66%29.65 "Hg2 mi
7:30 PM90 °FPassing clouds.5 mph63%29.65 "Hg2 mi
7:00 PM90 °FScattered clouds.5 mph63%29.62 "Hg2 mi
6:30 PM90 °FScattered clouds.7 mph59%29.62 "Hg2 mi
6:00 PM90 °FScattered clouds.6 mph59%29.62 "Hg2 mi
5:30 PM91 °FScattered clouds.7 mph56%29.62 "Hg2 mi
5:00 PM91 °FScattered clouds.9 mph59%29.62 "Hg2 mi
4:30 PM93 °FScattered clouds.5 mph53%29.62 "Hg2 mi
4:00 PM93 °FScattered clouds.6 mph56%29.62 "Hg2 mi
3:30 PM91 °FScattered clouds.5 mph59%29.62 "HgN/A
2:30 PM90 °FScattered clouds.5 mph63%29.65 "Hg2 mi
1:30 PM84 °FBroken clouds.6 mph66%29.71 "Hg2 mi
1:00 PM82 °FBroken clouds.5 mph70%29.71 "Hg2 mi
12:30 PM81 °FBroken clouds.No wind74%29.74 "Hg2 mi
12:00 PM81 °FBroken clouds.No wind74%29.74 "Hg2 mi
10:30 AM90 °FBroken clouds.6 mph67%29.74 "Hg1 mi
10:00 AM88 °FBroken clouds.7 mph70%29.74 "Hg1 mi
9:30 AM88 °FBroken clouds.7 mph70%29.74 "Hg1 mi
9:00 AM88 °FBroken clouds.8 mph70%29.74 "Hg1 mi
8:30 AM86 °FFog.7 mph79%29.74 "Hg1 mi
8:00 AM84 °FFog.7 mph84%29.74 "Hg1 mi
7:30 AM84 °FFog.6 mph84%29.74 "Hg1 mi
7:00 AM82 °FFog.7 mph84%29.71 "Hg1 mi
6:30 AM82 °FFog.6 mph84%29.71 "Hg1 mi
6:00 AM82 °FFog.No wind84%29.71 "Hg1 mi
5:30 AM82 °FFog.No wind84%29.71 "Hg2 mi
5:00 AM81 °FFog.No wind84%29.68 "Hg2 mi
4:30 AM82 °FFog.No wind79%29.68 "Hg2 mi
4:00 AM82 °FFog.No wind79%29.68 "Hg2 mi
3:30 AM82 °FThunderstorms. Partly cloudy.3 mph70%29.68 "Hg2 mi
3:00 AM82 °FThunderstorms. Partly cloudy.5 mph70%29.68 "Hg2 mi
Weather by CustomWeather, © 2014

See weather overviewHow to use our weather pages